KD5NVR Weather Reports


time (UTC)temp
F
wind
direction
speed
knots
gust
knots
rain 1hr
in
rain 24hr
in
rain mn
in
humidity
%
barometer
mb
20260506160022 75 3 0.9 1.7 0.00 0.11 0.00 93 1011.4
20260506155022 74 355 0.9 1.7 0.00 0.11 0.00 94 1011.3
20260506154023 74 149 0.9 2.6 0.00 0.11 0.00 95 1011.1
20260506153042 73 165 1.7 3.5 0.00 0.11 0.00 95 1011.0
20260506152023 73 207 0.9 2.6 0.00 0.11 0.00 95 1011.0
20260506151023 73 209 1.7 2.6 0.00 0.11 0.00 95 1011.0
20260506150020 73 218 3.5 5.2 0.00 0.11 0.00 94 1011.0
20260506145024 74 228 2.6 4.3 0.00 0.11 0.00 94 1010.9
20260506144021 74 213 3.5 4.3 0.00 0.11 0.00 92 1010.8
20260506143024 74 208 2.6 3.5 0.00 0.11 0.00 92 1010.8
20260506142043 74 181 0.0 0.9 0.00 0.11 0.00 92 1010.8
20260506141024 74 166 1.7 3.5 0.00 0.11 0.00 92 1010.5
20260506140021 74 168 3.5 7.0 0.00 0.11 0.00 92 1010.1
20260506135025 74 163 1.7 3.5 0.00 0.11 0.00 93 1009.9
20260506134025 74 171 0.9 2.6 0.00 0.11 0.00 93 1009.7
20260506133022 74 166 3.5 6.1 0.00 0.11 0.00 94 1009.4
20260506132016 74 155 3.5 5.2 0.00 0.11 0.00 94 1009.3
20260506131025 73 170 2.6 4.3 0.00 0.11 0.00 94 1009.2
20260506130126 73 163 1.7 3.5 0.00 0.11 0.00 94 1009.2
20260506125017 73 155 1.7 4.3 0.00 0.11 0.00 94 1009.0
20260506124017 73 179 1.7 3.5 0.00 0.11 0.00 94 1008.9
20260506123017 73 156 2.6 6.1 0.00 0.11 0.00 95 1008.7
20260506122018 73 160 1.7 4.3 0.00 0.11 0.00 95 1008.8
20260506121018 73 161 1.7 4.3 0.00 0.11 0.00 95 1008.8
20260506120038 73 177 1.7 3.5 0.00 0.11 0.00 95 1008.8
20260506115038 73 189 2.6 3.5 0.00 0.11 0.00 95 1008.8
20260506114019 73 170 0.9 3.5 0.00 0.11 0.00 95 1008.9
20260506113019 73 154 1.7 3.5 0.00 0.11 0.00 95 1008.8
20260506112016 73 174 0.9 3.5 0.00 0.11 0.00 96 1008.9
20260506111016 73 146 2.6 5.2 0.00 0.11 0.00 96 1008.9
20260506110015 73 154 2.6 4.3 0.00 0.11 0.00 96 1008.9
20260506105016 73 157 2.6 4.3 0.00 0.11 0.00 96 1009.0
20260506104017 73 152 2.6 5.2 0.00 0.11 0.00 96 1009.0
20260506103017 73 163 2.6 5.2 0.00 0.11 0.00 96 1009.0
20260506102017 73 170 4.3 7.8 0.00 0.11 0.00 96 1009.0
20260506101037 73 162 4.3 7.8 0.00 0.11 0.00 96 1008.9
20260506100017 73 166 4.3 9.6 0.00 0.11 0.00 95 1008.9
20260506095017 73 164 5.2 7.8 0.00 0.11 0.00 95 1008.9
20260506094017 73 164 5.2 8.7 0.00 0.11 0.00 94 1008.8
20260506093018 74 164 4.3 10.4 0.00 0.11 0.00 93 1008.8
20260506092018 74 172 7.0 11.3 0.00 0.11 0.00 93 1008.7
20260506091018 74 163 5.2 7.8 0.00 0.11 0.00 93 1008.7
20260506090018 74 165 5.2 9.6 0.00 0.11 0.00 92 1008.5
20260506085018 74 162 5.2 9.6 0.00 0.11 0.00 92 1008.5
20260506084019 74 168 6.1 11.3 0.00 0.11 0.00 92 1008.4
20260506083056 74 170 7.0 13.9 0.00 0.11 0.00 93 1008.4
20260506082016 74 155 7.0 13.9 0.00 0.11 0.00 93 1008.4
20260506081016 74 161 6.1 10.4 0.00 0.11 0.00 93 1008.6
20260506073017 75 163 6.1 10.4 0.00 0.11 0.00 91 1009.0
20260506072017 75 165 3.5 7.8 0.00 0.11 0.00 90 1009.1
20260506071037 75 156 4.3 7.8 0.00 0.11 0.00 90 1009.2
20260506062038 75 161 7.0 10.4 0.00 0.11 0.00 89 1009.2
20260506061018 76 165 7.8 11.3 0.00 0.11 0.00 88 1009.1
20260506051016 76 157 7.0 9.6 0.00 0.11 0.00 87 1008.9
20260506050331 76 164 7.0 11.3 0.00 0.11 0.00 87 1008.9
20260506045016 76 163 6.1 11.3 0.00 0.11 0.11 88 1009.0
20260506044017 76 162 4.3 9.6 0.00 0.11 0.11 89 1008.9
20260506043037 75 176 1.7 3.5 0.00 0.11 0.11 89 1008.8
20260506042017 75 143 0.9 2.6 0.00 0.11 0.11 88 1008.7
20260506041017 75 145 2.6 5.2 0.00 0.11 0.11 87 1008.7
20260506040017 75 152 2.6 5.2 0.00 0.11 0.11 86 1008.6
20260506035018 75 93 0.9 2.6 0.00 0.11 0.11 86 1008.5
20260506034017 75 45 0.0 1.7 0.00 0.11 0.11 86 1008.3
20260506033018 75 31 0.9 1.7 0.00 0.11 0.11 85 1008.2
20260506032018 76 54 0.0 0.9 0.00 0.11 0.11 84 1008.1
20260506031018 76 9 0.9 1.7 0.00 0.11 0.11 83 1008.0
20260506030018 76 342 0.0 0.9 0.00 0.11 0.11 83 1007.7
20260506025018 76 15 0.0 0.9 0.00 0.11 0.11 83 1007.7
20260506024018 77 333 0.0 1.7 0.00 0.11 0.11 82 1007.5
20260506023016 77 10 0.9 2.6 0.00 0.11 0.11 82 1007.4
20260506022017 78 8 0.0 1.7 0.00 0.11 0.11 81 1007.2
20260506021017 78 185 0.9 2.6 0.00 0.11 0.11 79 1007.1
20260506020016 79 53 0.0 0.9 0.00 0.11 0.11 78 1006.9
20260506015016 79 199 1.7 2.6 0.00 0.11 0.11 77 1006.9
20260506014017 80 205 1.7 2.6 0.00 0.11 0.11 76 1006.6
20260506013039 81 145 0.9 3.5 0.00 0.11 0.11 74 1006.5
20260506012018 81 158 3.5 6.1 0.00 0.11 0.11 73 1006.3
20260506011037 82 162 1.7 3.5 0.01 0.11 0.11 72 1006.3
20260506010017 82 146 0.9 2.6 0.11 0.11 0.11 70 1006.2
20260506005018 83 166 2.6 4.3 0.11 0.11 0.11 69 1006.2
20260506004038 83 163 1.7 2.6 0.11 0.11 0.11 68 1006.4
20260506003018 84 165 1.7 2.6 0.11 0.11 0.11 67 1006.5
20260506002018 84 122 1.7 4.3 0.11 0.11 0.11 67 1006.5
20260506001018 84 145 2.6 6.1 0.10 0.10 0.10 67 1006.5
20260506000036 84 158 4.3 7.0 0.00 0.00 0.00 66 1006.4
20260505235016 84 178 4.3 7.8 0.00 0.00 0.00 64 1006.4
20260505234016 84 173 3.5 5.2 0.00 0.00 0.00 65 1006.3
20260505233016 85 206 5.2 7.8 0.00 0.01 0.00 65 1006.3
20260505232036 85 182 4.3 7.0 0.00 0.01 0.00 64 1006.3
20260505231017 85 153 4.3 7.8 0.00 0.01 0.00 65 1006.4
20260505230017 85 173 4.3 7.0 0.00 0.01 0.00 64 1006.3
20260505225017 85 197 3.5 7.8 0.00 0.01 0.00 64 1006.3
20260505224017 84 165 5.2 9.6 0.00 0.01 0.00 65 1006.3
20260505223017 84 171 6.1 10.4 0.00 0.01 0.00 65 1006.3
20260505222017 84 173 6.1 10.4 0.00 0.01 0.00 65 1006.2
20260505221018 85 178 7.0 11.3 0.00 0.01 0.00 64 1006.3
20260505220018 84 177 6.1 9.6 0.00 0.01 0.00 65 1006.3
20260505215018 85 163 5.2 10.4 0.00 0.01 0.00 65 1006.4
20260505214018 85 180 7.0 11.3 0.00 0.01 0.00 64 1006.5
20260505213019 84 181 7.0 13.9 0.00 0.01 0.00 65 1006.5
20260505212016 84 152 5.2 10.4 0.00 0.01 0.00 65 1006.5
20260505211016 85 182 7.0 10.4 0.00 0.01 0.00 64 1006.7
20260505210016 85 184 3.5 7.0 0.00 0.01 0.00 63 1007.0
20260505205016 84 215 6.1 11.3 0.00 0.01 0.00 63 1007.0
20260505204016 84 204 7.0 11.3 0.00 0.01 0.00 64 1007.3
20260505203016 84 223 7.0 11.3 0.00 0.01 0.00 64 1007.4
20260505202016 83 187 5.2 12.2 0.00 0.01 0.00 65 1007.6
20260505201017 83 216 6.1 8.7 0.00 0.01 0.00 66 1007.7
20260505200017 83 196 7.0 10.4 0.00 0.01 0.00 65 1007.8
20260505195017 83 184 7.0 10.4 0.00 0.01 0.00 65 1007.9
20260505194017 82 168 7.0 11.3 0.00 0.01 0.00 68 1008.0
20260505193018 82 201 4.3 8.7 0.00 0.01 0.00 67 1008.2
20260505192018 82 202 5.2 11.3 0.00 0.01 0.00 68 1008.2
20260505191018 81 191 4.3 8.7 0.00 0.01 0.00 68 1008.3
20260505190018 80 252 3.5 8.7 0.00 0.01 0.00 70 1008.5
20260505185018 80 222 5.2 9.6 0.00 0.01 0.00 72 1008.7
20260505184018 80 236 4.3 7.8 0.00 0.01 0.00 72 1008.8
20260505183036 80 250 4.3 7.8 0.00 0.01 0.00 72 1009.0
20260505182016 79 213 3.5 7.0 0.00 0.01 0.00 74 1009.0
20260505181016 78 198 5.2 9.6 0.00 0.01 0.00 74 1009.2
20260505180016 77 202 6.1 8.7 0.00 0.01 0.00 77 1009.4
20260505175016 77 201 4.3 7.0 0.00 0.01 0.00 78 1009.6
20260505174016 76 234 4.3 7.0 0.00 0.01 0.00 80 1009.5
20260505173017 75 239 4.3 9.6 0.00 0.01 0.00 81 1009.6
20260505172017 75 225 6.1 9.6 0.00 0.01 0.00 83 1009.5
20260505171017 74 199 5.2 8.7 0.00 0.01 0.00 84 1009.6
20260505170018 74 199 6.1 8.7 0.00 0.01 0.00 84 1009.6
20260505165018 74 213 7.0 9.6 0.00 0.01 0.00 85 1009.6
20260505164017 73 188 5.2 9.6 0.00 0.01 0.00 87 1009.6
20260505163021 73 223 2.6 5.2 0.00 0.01 0.00 89 1009.6
20260505162041 72 198 4.3 7.8 0.00 0.01 0.00 92 1009.6
20260505161041 71 201 3.5 6.1 0.00 0.01 0.00 93 1009.5